Weather History for Ciudad Obregon, Mexico

Change the Weather History Date:

Wednesday, November 7, 2012

  Actual Average Record
Temperature  
Mean Temperature 79 °F -  
Max Temperature 98 °F 87 °F 98 °F (2012)
Min Temperature 60 °F 61 °F 51 °F (2011)
Cooling Degree Days 14    
Growing Degree Days 29 (Base 50)    
Moisture  
Dew Point 52 °F    
Average Humidity 38    
Maximum Humidity 72    
Minimum Humidity 14    
Precipitation  
Precipitation 0.00 in - - ()
Sea Level Pressure  
Sea Level Pressure 29.87 in    
Wind  
Wind Speed 3 mph ()    
Max Wind Speed 16 mph    
Max Gust Speed -    
Visibility 9.9 miles    
Events      
Averages and records for this station are not official NWS values.
T = Trace of Precipitation, MM = Missing Value Source: Averaged Metar Reports

Daily Weather History Graph

Daily Weather History Graph

Search for Another Location

Airport:

Trip Planner

Search our weather history database for the weather conditions in past years. The results will help you decide how hot, cold, wet, or windy it might be!

Date:

Astronomy

Nov. 07, 2012 Rise Set
Actual Time 6:34 AM MST 5:31 PM MST
Civil Twilight 6:10 AM MST 5:55 PM MST
Nautical Twilight 5:42 AM MST 6:23 PM MST
Astronomical Twilight 5:14 AM MST 6:51 PM MST
Moon 12:07 AM MST (11/7) 1:09 PM MST (11/7)
Length of Visible Light 11h 45m
Length of Day
10h 57m
Last Quarter, 42% of the Moon is Illuminated
Nov 7
Last Quarter
Nov 13
New
Nov 20
First Quarter
Nov 28
Full
Dec 6
Last Quarter

Hourly Weather History & Observations

Time (MST) Temp. Heat Index Dew Point Humidity Pressure Visibility Wind Dir Wind Speed Gust Speed Precip Events Conditions
4:40 AM 60.8 °F - 51.8 °F 72% 29.87 in 10.0 mi Calm Calm - N/A   Clear
4:50 AM 63 °F - 54 °F 65% 29.89 in 3 mi NE 4.5 mph - -  
5:41 AM 60.8 °F - 48.2 °F 63% 29.88 in 10.0 mi East 3.5 mph - N/A   Clear
6:45 AM 62.6 °F - 50.0 °F 63% 29.89 in 10.0 mi SE 3.5 mph - N/A   Scattered Clouds
7:45 AM 69.8 °F - 51.8 °F 53% 29.91 in 10.0 mi Calm Calm - N/A   Scattered Clouds
7:50 AM 64 °F - 54 °F 61% 29.94 in 12 mi NNW 2.2 mph - -   Clear
8:43 AM 77.0 °F - 53.6 °F 44% 29.92 in 10.0 mi Calm Calm - N/A   Scattered Clouds
9:41 AM 84.2 °F - 50.0 °F 30% 29.92 in 10.0 mi WNW 2.3 mph - N/A   Partly Cloudy
10:41 AM 89.6 °F - 51.8 °F 27% 29.91 in 10.0 mi West 2.3 mph - N/A   Partly Cloudy
10:50 AM 89 °F - 56 °F 23% 29.94 in 12 mi SW 6.7 mph - -   Clear
11:41 AM 91.4 °F - 48.2 °F 23% 29.89 in 10.0 mi SSW 5.8 mph - N/A   Partly Cloudy
12:40 PM 93.2 °F - 48.2 °F 21% 29.85 in 10.0 mi Calm Calm - N/A   Scattered Clouds
1:44 PM 95.0 °F - 44.6 °F 18% 29.82 in 10.0 mi West 5.8 mph - N/A   Mostly Cloudy
1:50 PM 97 °F - 53 °F 14% 29.85 in 12 mi WSW 6.7 mph - -   Partly Cloudy
2:41 PM 96.8 °F - 41.0 °F 15% 29.81 in 10.0 mi West 8.1 mph - N/A   Mostly Cloudy
3:41 PM 95.0 °F - 50.0 °F 22% 29.80 in 10.0 mi West 5.8 mph - N/A   Mostly Cloudy
4:43 PM 89.6 °F 87.3 °F 53.6 °F 29% 29.81 in 10.0 mi West 8.1 mph - N/A   Mostly Cloudy
4:50 PM 89 °F - 62 °F 30% 29.83 in 9 mi WSW 15.7 mph - -   Partly Cloudy
5:44 PM 84.2 °F 82.8 °F 53.6 °F 35% 29.82 in 10.0 mi West 8.1 mph - N/A   Overcast
6:43 PM 80.6 °F 81.1 °F 59.0 °F 48% 29.83 in 10.0 mi WNW 3.5 mph - N/A   Mostly Cloudy
7:42 PM 78.8 °F - 59.0 °F 51% 29.84 in 10.0 mi West 3.5 mph - N/A   Mostly Cloudy